Weather History for Jaffrey, NH

Change the Weather History Date:

Friday, February 22, 2013

  Actual Average Record
Temperature  
Mean Temperature 24 °F -  
Max Temperature 35 °F 33 °F 62 °F (1997)
Min Temperature 12 °F 14 °F -4 °F (2001)
Degree Days  
Heating Degree Days 42    
Moisture  
Dew Point 15 °F    
Average Humidity 66    
Maximum Humidity 92    
Minimum Humidity 42    
Precipitation  
Precipitation 0.00 in - - ()
Sea Level Pressure  
Sea Level Pressure 30.34 in    
Wind  
Wind Speed 2 mph (SSW)    
Max Wind Speed 8 mph    
Max Gust Speed -    
Visibility 10 miles    
Events      
Averages and records for this station are not official NWS values.
T = Trace of Precipitation, MM = Missing Value Source: NWS Daily Summary

Daily Weather History Graph

Daily Weather History Graph

Search for Another Location

Airport:

Trip Planner

Search our weather history database for the weather conditions in past years. The results will help you decide how hot, cold, wet, or windy it might be!

Date:

Astronomy

Feb. 22, 2013 Rise Set
Actual Time 6:34 AM EST 5:28 PM EST
Civil Twilight 6:05 AM EST 5:57 PM EST
Nautical Twilight 5:33 AM EST 6:30 PM EST
Astronomical Twilight 5:00 AM EST 7:03 PM EST
Moon 2:34 PM EST (2/22) 4:20 AM EST (2/22)
Length of Visible Light 11h 51m
Length of Day
10h 54m
Waxing Gibbous, 90% of the Moon is Illuminated
Feb 22
Waxing Gibbous
Feb 25
Full
Mar 4
Last Quarter
Mar 11
New
Mar 19
First Quarter

Hourly Weather History & Observations

Time (EST) Temp. Windchill Dew Point Humidity Pressure Visibility Wind Dir Wind Speed Gust Speed Precip Events Conditions
12:52 AM 21.0 °F 16.2 °F 14.0 °F 74% 30.28 in 10.0 mi Variable 3.5 mph - N/A   Clear
1:52 AM 19.9 °F - 14.0 °F 78% 30.29 in 10.0 mi Calm Calm - N/A   Clear
2:52 AM 14.0 °F - 10.9 °F 88% 30.30 in 10.0 mi Calm Calm - N/A   Clear
3:52 AM 12.0 °F - 10.0 °F 92% 30.30 in 10.0 mi Calm Calm - N/A   Clear
4:52 AM 12.9 °F - 10.0 °F 88% 30.31 in 10.0 mi Calm Calm - N/A   Clear
5:52 AM 12.0 °F - 9.0 °F 88% 30.37 in 10.0 mi Calm Calm - N/A   Clear
7:52 AM 12.9 °F - 10.9 °F 92% 30.41 in 10.0 mi Calm Calm - N/A   Clear
8:52 AM 25.0 °F - 18.0 °F 75% 30.40 in 10.0 mi Calm Calm - N/A   Clear
9:52 AM 30.0 °F - 16.0 °F 56% 30.40 in 10.0 mi Calm Calm - N/A   Clear
10:52 AM 33.1 °F 28.7 °F 15.1 °F 48% 30.38 in 10.0 mi Variable 4.6 mph - N/A   Clear
11:52 AM 35.1 °F 31.0 °F 14.0 °F 42% 30.36 in 10.0 mi North 4.6 mph - N/A   Clear
12:52 PM 34.0 °F 31.0 °F 15.1 °F 46% 30.36 in 10.0 mi WNW 3.5 mph - N/A   Clear
1:52 PM 35.1 °F - 15.1 °F 44% 30.34 in 10.0 mi Calm Calm - N/A   Clear
2:52 PM 35.1 °F - 14.0 °F 42% 30.34 in 10.0 mi Calm Calm - N/A   Clear
3:52 PM 35.1 °F 31.0 °F 16.0 °F 46% 30.33 in 10.0 mi Variable 4.6 mph - N/A   Clear
4:52 PM 34.0 °F 31.0 °F 16.0 °F 48% 30.33 in 10.0 mi Variable 3.5 mph - N/A   Clear
5:52 PM 28.9 °F - 18.0 °F 64% 30.35 in 10.0 mi Calm Calm - N/A   Clear
6:52 PM 27.0 °F - 19.0 °F 72% 30.36 in 10.0 mi Calm Calm - N/A   Clear
7:52 PM 27.0 °F - 18.0 °F 69% 30.35 in 10.0 mi Calm Calm - N/A   Clear
8:52 PM 30.0 °F 22.4 °F 19.0 °F 64% 30.34 in 10.0 mi SSE 8.1 mph - N/A   Mostly Cloudy
9:52 PM 28.9 °F 22.8 °F 19.9 °F 69% 30.34 in 10.0 mi SSE 5.8 mph - N/A   Overcast
10:52 PM 28.0 °F 24.2 °F 19.0 °F 69% 30.33 in 10.0 mi South 3.5 mph - N/A   Overcast
11:52 PM 28.0 °F - 19.9 °F 72% 30.32 in 10.0 mi Calm Calm - N/A   Overcast